Powrót do katalogu

COSMOS 622

AktywnyMilitariaLEO
NORAD 6990·PAYLOAD·🇷🇺 Russia

Wystrzelony Dec 19, 1973 z Plesetsk Cosmodrome

Loading…

Następne Przeloty (najbliższe 24 godziny)

TLE

ŚwieżeSource: Space-Track

Epoka: Sep 14, 2026, 15:14 UTC

1  6990U 73104F   26257.63535252  .00000005  00000-0  12275-3 0  9997
2  6990  74.0282 131.3839 0073866 182.8621 205.2953 12.59122363423891

Śledź COSMOS 622 w czasie rzeczywistym z AllMySat

Download on the App Store